Weather observations for the past three days for
Stockton, Stockton Metropolitan Airport
Imperial (Metric)
Date Time (pdt) Wind (mph) Vis. (mi.) Weather Sky Cond. Temperature (ºF) Relative Humidity Wind Chill (°F) Heat Index (°F) Pressure Precipitation (in)
Air Dwpt 6 hour altimeter (in) sea level (mb) 1 hr 3 hr 6 hr
Max. Min.
21 06:55 W 10 10.00 Fair CLR 66 53.1 63% 29.88 1011.6
21 05:55 W 12 10.00 Fair CLR 66 53.1 63% 29.87 1011.4
21 04:55 W 9 10.00 Fair CLR 66.9 52 77 66 59% 29.86 1011.1
21 03:55 NW 5 10.00 Fair CLR 66.9 52 59% 29.86 1010.9
21 02:55 W 10 10.00 Fair CLR 69.1 52 55% 29.85 1010.8
21 01:55 W 12 10.00 Fair CLR 71.1 51.1 49% 29.86 1011.0
21 00:55 W 12 10.00 Fair CLR 73 52 48% 29.86 1011.0
20 23:55 W 10 10.00 Fair CLR 75 53.1 46% 78 29.86 1011.2
20 22:55 W 6 10.00 Fair CLR 77 54 100.9 77 45% 78 29.86 1011.0
20 21:55 W 9 G 18 10.00 Fair CLR 80.1 53.1 39% 80 29.85 1010.7
20 20:55 W 17 10.00 Fair CLR 82 53.1 37% 81 29.82 1009.9
20 19:55 W 17 10.00 Fair CLR 87.1 54 32% 85 29.82 1009.8
20 18:55 W 14 10.00 Fair CLR 93 55 28% 91 29.82 1009.7
20 17:55 NW 10 G 22 10.00 Fair CLR 99 59 27% 99 29.81 1009.4
20 16:55 W 15 10.00 Fair CLR 100.9 60.1 102.9 91 26% 102 29.81 1009.2
20 15:55 NW 13 10.00 Fair CLR 100.9 59 25% 101 29.82 1009.6
20 14:55 W 10 10.00 Fair CLR 100.9 55 22% 99 29.84 1010.3
20 13:55 W 8 10.00 Fair CLR 100 53.1 21% 98 29.85 1010.8
20 12:55 W 8 10.00 Fair CLR 96.1 55 25% 94 29.87 1011.3
20 11:55 W 8 10.00 Fair CLR 93.9 53.1 25% 91 29.88 1011.7
20 10:55 Vrbl 3 10.00 Fair CLR 91 50 91 68 25% 88 29.89 1012.0
20 09:55 W 6 10.00 Fair CLR 87.1 52 30% 85 29.9 1012.3
20 08:55 Calm 10.00 Fair CLR 82 53.1 37% 81 29.9 1012.3
20 07:55 W 3 10.00 Fair CLR 79 53.1 41% 79 29.88 1011.9
20 06:55 N 3 10.00 Fair CLR 73 54 51% 29.86 1011.2
20 05:55 Calm 10.00 Fair CLR 69.1 55 61% 29.85 1010.6
20 04:55 Calm 10.00 Fair CLR 71.1 52 86 71.1 51% 29.84 1010.4
20 03:55 Calm 10.00 Fair CLR 75 52 45% 78 29.84 1010.4
20 02:55 NE 3 10.00 Fair CLR 75 52 45% 78 29.84 1010.4
20 01:55 Calm 10.00 Fair CLR 78.1 48.9 36% 79 29.85 1010.7
20 00:55 NW 3 10.00 Fair CLR 80.1 48.9 34% 79 29.86 1011.0
19 23:55 W 9 10.00 Fair CLR 84 48 29% 82 29.85 1010.6
19 22:55 W 14 10.00 Fair CLR 86 48 105.1 84.9 27% 83 29.85 1010.8
19 21:55 W 13 10.00 Fair CLR 88 48.9 26% 85 29.86 1011.1
19 20:55 W 9 10.00 Fair CLR 89.1 55 31% 87 29.86 1010.9
19 19:55 NW 9 10.00 Fair CLR 96.1 48 19% 93 29.85 1010.7
19 18:55 NW 13 10.00 Fair CLR 100 50 18% 97 29.84 1010.4
19 17:55 W 13 10.00 Fair CLR 104 48.9 16% 101 29.84 1010.4
19 16:55 NW 13 10.00 Fair CLR 105.1 48 106 89.1 15% 102 29.85 1010.8
19 15:55 NW 14 10.00 Fair CLR 102.9 51.1 18% 100 29.88 1011.6
19 14:55 NW 10 G 22 10.00 Fair CLR 102 53.1 19% 100 29.9 1012.4
19 13:55 NW 9 10.00 Fair CLR 100 55 22% 98 29.92 1013.1
19 12:55 NW 10 10.00 Fair CLR 98.1 54 23% 96 29.94 1013.6
19 11:55 NW 8 10.00 Fair CLR 95 53.1 24% 93 29.95 1014.1
19 10:55 NW 10 10.00 Fair CLR 89.1 55.9 89.1 66 33% 87 29.95 1014.3
19 09:55 NW 8 10.00 Fair CLR 82.9 55 38% 82 29.96 1014.5
19 08:55 W 7 7.00 Fair CLR 80.1 54 41% 80 29.97 1014.7
19 06:55 N 6 10.00 Fair CLR 71.1 52 51% 29.94 1013.9
19 05:55 N 5 10.00 Fair CLR 69.1 52 55% 29.93 1013.5
19 04:55 Calm 10.00 Fair CLR 68 53.1 80.1 68 59% 29.93 1013.4
19 03:55 N 5 10.00 Fair CLR 69.1 52 55% 29.92 1013.1
19 02:55 NW 3 10.00 Fair CLR 71.1 54 55% 29.92 1013.0
19 01:55 N 3 10.00 Fair CLR 73 53.1 50% 29.92 1013.3
19 00:55 NW 3 10.00 Fair CLR 73.9 51.1 45% 29.93 1013.4
18 23:55 N 5 10.00 Fair CLR 78.1 51.1 39% 79 29.93 1013.5
18 22:55 W 8 10.00 Fair CLR 80.1 50 102 79 35% 80 29.92 1013.2
18 21:55 W 8 10.00 Fair CLR 82 51.1 34% 81 29.92 1013.2
18 20:55 W 9 10.00 Fair CLR 87.1 51.1 29% 85 29.91 1012.9
18 19:55 NW 8 10.00 Fair CLR 91 55.9 31% 89 29.9 1012.5
18 18:55 NW 8 10.00 Fair CLR 97 52 22% 94 29.89 1012.0
18 17:55 NW 9 10.00 Fair CLR 99 50 19% 96 29.88 1011.7
18 16:55 NW 13 G 21 10.00 Fair CLR 102 45 102 84.9 14% 98 29.89 1012.1
18 15:55 N 12 G 18 10.00 Fair CLR 100 54 21% 98 29.9 1012.4
18 14:55 NW 8 G 21 10.00 Fair CLR 99 55 23% 97 29.92 1013.1
18 13:55 W 8 10.00 Fair CLR 98.1 55 24% 96 29.94 1013.8
18 12:55 NW 8 10.00 Fair CLR 93 57 30% 92 29.95 1014.2
18 11:55 Vrbl 5 10.00 Fair CLR 90 57 33% 89 29.96 1014.4
18 10:55 W 9 10.00 Fair CLR 84.9 57.9 86 62.1 40% 84 29.96 1014.5
18 09:55 W 12 10.00 Fair CLR 80.1 57.9 47% 81 29.96 1014.4
18 08:55 NW 12 10.00 Fair CLR 77 55.9 48% 79 29.96 1014.3
18 07:55 NW 8 10.00 Fair CLR 73 54 51% 29.96 1014.4
Date Time (pdt) Wind (mph) Vis. (mi.) Weather Sky Cond. Air Dwpt Max. Min. Relative Humidity Wind Chill (°F) Heat Index (°F) altimeter (in) sea level (mb) 1 hr 3 hr 6 hr
6 hour
Temperature (ºF) Pressure Precipitation (in)